Location: Pompeys Pillar
(45.9913°N, 107.9528°W)
Time: 17:03:33
(UTC+00:00)

Tiangong - Pass Details

Date: 28 January 2022
Orbit: 386 x 388 km, 41.5° (Epoch: 26 May)

Event Time Altitude Azimuth Distance (km) Brightness Sun altitude
Rises 01:52:14 0° 229° (SW) 2,357 6.0 -17.7°
Reaches altitude 10° 01:54:37 10° 213° (SSW) 1,502 4.6 -18.1°
Maximum altitude 01:57:20 22° 160° (SSE) 972 2.9 -18.6°
Enters shadow 01:57:23 22° 159° (SSE) 972 2.9 -18.6°
